| time (UTC) | temp F | wind direction | speed knots | gust knots | rain 1hr in | rain 24hr in | rain mn in | humidity % | barometer mb |
| 20260505153026 | 79 | 275 | 3.5 | 7.0 | 0.00 | 0.00 | 0.00 | 44 | 1016.0 |
| 20260505151520 | 78 | 285 | 2.6 | 7.8 | 0.00 | 0.00 | 0.00 | 45 | 1016.0 |
| 20260505124527 | 66 | 219 | 2.6 | 6.1 | 0.00 | 0.00 | 0.00 | 60 | 1016.4 |
| 20260505123011 | 65 | 272 | 0.9 | 6.1 | 0.00 | 0.00 | 0.00 | 63 | 1016.5 |
| 20260505121520 | 64 | 233 | 0.9 | 7.0 | 0.00 | 0.00 | 0.00 | 65 | 1016.4 |
| 20260505120033 | 63 | 289 | 2.6 | 7.0 | 0.00 | 0.00 | 0.00 | 66 | 1016.4 |
| 20260505114530 | 62 | 242 | 1.7 | 7.0 | 0.00 | 0.00 | 0.00 | 68 | 1016.3 |
| 20260505113028 | 61 | 223 | 0.9 | 6.1 | 0.00 | 0.00 | 0.00 | 70 | 1016.2 |
| 20260505111517 | 60 | 261 | 1.7 | 5.2 | 0.00 | 0.00 | 0.00 | 70 | 1016.2 |
| 20260505101526 | 60 | 242 | 0.9 | 7.0 | 0.00 | 0.00 | 0.00 | 69 | 1015.4 |
| 20260505100028 | 60 | 219 | 1.7 | 4.3 | 0.00 | 0.00 | 0.00 | 69 | 1015.2 |
| 20260505094528 | 60 | 222 | 0.9 | 7.0 | 0.00 | 0.00 | 0.00 | 68 | 1015.2 |
| 20260505093032 | 60 | 254 | 0.0 | 7.8 | 0.00 | 0.00 | 0.00 | 68 | 1015.0 |
| 20260505091539 | 61 | 237 | 0.9 | 4.3 | 0.00 | 0.00 | 0.00 | 67 | 1014.9 |
| 20260505090043 | 61 | 223 | 0.9 | 7.0 | 0.00 | 0.00 | 0.00 | 66 | 1014.8 |
| 20260505084524 | 61 | 221 | 0.9 | 7.0 | 0.00 | 0.00 | 0.00 | 66 | 1014.7 |
| 20260505083027 | 62 | 288 | 2.6 | 6.1 | 0.00 | 0.00 | 0.00 | 65 | 1014.6 |
| 20260505081537 | 62 | 283 | 0.9 | 7.8 | 0.00 | 0.00 | 0.00 | 65 | 1014.6 |
| 20260505080045 | 62 | 311 | 1.7 | 9.6 | 0.00 | 0.00 | 0.00 | 65 | 1014.5 |
| 20260505074520 | 62 | 265 | 0.9 | 3.5 | 0.00 | 0.00 | 0.00 | 64 | 1014.6 |
| 20260505073027 | 62 | 225 | 0.9 | 5.2 | 0.00 | 0.00 | 0.00 | 64 | 1014.6 |
| 20260505071528 | 63 | 292 | 2.6 | 6.1 | 0.00 | 0.00 | 0.00 | 64 | 1014.5 |
| 20260505070027 | 63 | 232 | 2.6 | 10.4 | 0.00 | 0.00 | 0.00 | 63 | 1014.5 |
| 20260505064528 | 63 | 229 | 0.9 | 7.0 | 0.00 | 0.00 | 0.00 | 62 | 1014.5 |
| 20260505063022 | 63 | 208 | 2.6 | 7.8 | 0.00 | 0.00 | 0.00 | 61 | 1014.4 |
| 20260505061526 | 63 | 257 | 0.9 | 5.2 | 0.00 | 0.00 | 0.00 | 61 | 1014.4 |
| 20260505060029 | 64 | 271 | 0.9 | 7.8 | 0.00 | 0.00 | 0.00 | 61 | 1014.5 |
| 20260505054528 | 64 | 291 | 2.6 | 13.9 | 0.00 | 0.00 | 0.00 | 60 | 1014.6 |
| 20260505053028 | 64 | 271 | 1.7 | 7.0 | 0.00 | 0.00 | 0.00 | 60 | 1014.8 |
| 20260505051525 | 64 | 317 | 0.9 | 9.6 | 0.00 | 0.00 | 0.00 | 60 | 1014.6 |
| 20260505041545 | 65 | 226 | 2.6 | 12.2 | 0.00 | 0.00 | 0.00 | 60 | 1014.7 |
| 20260505040027 | 65 | 216 | 2.6 | 11.3 | 0.00 | 0.00 | 0.00 | 60 | 1014.8 |
| 20260505034528 | 66 | 263 | 2.6 | 8.7 | 0.00 | 0.00 | 0.00 | 59 | 1014.6 |
| 20260505033028 | 66 | 273 | 1.7 | 9.6 | 0.00 | 0.00 | 0.00 | 59 | 1014.6 |
| 20260505031536 | 66 | 228 | 3.5 | 13.0 | 0.00 | 0.00 | 0.00 | 59 | 1014.6 |
| 20260505030032 | 66 | 249 | 2.6 | 11.3 | 0.00 | 0.00 | 0.00 | 60 | 1014.6 |
| 20260505024507 | 66 | 269 | 4.3 | 12.2 | 0.00 | 0.00 | 0.00 | 60 | 1014.5 |
| 20260505023016 | 67 | 275 | 2.6 | 8.7 | 0.00 | 0.00 | 0.00 | 61 | 1014.4 |
| 20260505021525 | 67 | 165 | 3.5 | 14.8 | 0.00 | 0.00 | 0.00 | 60 | 1014.4 |
| 20260505020022 | 67 | 186 | 3.5 | 13.0 | 0.00 | 0.00 | 0.00 | 60 | 1014.4 |
| 20260505014527 | 68 | 259 | 3.5 | 11.3 | 0.00 | 0.00 | 0.00 | 60 | 1014.4 |
| 20260505013016 | 68 | 192 | 3.5 | 13.9 | 0.00 | 0.00 | 0.00 | 59 | 1014.1 |
| 20260505011527 | 68 | 214 | 4.3 | 13.9 | 0.00 | 0.00 | 0.00 | 58 | 1014.1 |
| 20260505010020 | 69 | 217 | 2.6 | 10.4 | 0.00 | 0.00 | 0.00 | 58 | 1013.8 |
| 20260505004533 | 69 | 188 | 4.3 | 11.3 | 0.00 | 0.00 | 0.00 | 57 | 1013.6 |
| 20260505003025 | 70 | 247 | 4.3 | 15.6 | 0.00 | 0.00 | 0.00 | 55 | 1013.5 |
| 20260505001514 | 71 | 194 | 3.5 | 10.4 | 0.00 | 0.00 | 0.00 | 54 | 1013.4 |
| 20260505000028 | 72 | 267 | 4.3 | 11.3 | 0.00 | 0.00 | 0.00 | 51 | 1013.1 |
| 20260504234523 | 73 | 236 | 5.2 | 13.9 | 0.00 | 0.00 | 0.00 | 48 | 1013.0 |
| 20260504233026 | 75 | 190 | 1.7 | 5.2 | 0.00 | 0.00 | 0.00 | 36 | 1012.7 |
| 20260504231514 | 75 | 175 | 0.9 | 7.0 | 0.00 | 0.00 | 0.00 | 36 | 1012.5 |
| 20260504230020 | 76 | 223 | 1.7 | 12.2 | 0.00 | 0.00 | 0.00 | 35 | 1012.4 |
| 20260504224522 | 76 | 276 | 1.7 | 7.8 | 0.00 | 0.00 | 0.00 | 35 | 1012.5 |
| 20260504223027 | 77 | 275 | 1.7 | 7.0 | 0.00 | 0.00 | 0.00 | 34 | 1012.4 |
| 20260504221532 | 77 | 250 | 2.6 | 11.3 | 0.00 | 0.00 | 0.00 | 33 | 1012.4 |
| 20260504220018 | 78 | 238 | 1.7 | 7.8 | 0.00 | 0.00 | 0.00 | 33 | 1012.4 |
| 20260504214523 | 78 | 306 | 3.5 | 8.7 | 0.00 | 0.00 | 0.00 | 33 | 1012.4 |
| 20260504213045 | 78 | 273 | 1.7 | 14.8 | 0.00 | 0.00 | 0.00 | 33 | 1012.5 |
| 20260504211525 | 78 | 259 | 4.3 | 15.6 | 0.00 | 0.00 | 0.00 | 32 | 1012.5 |
| 20260504210018 | 79 | 199 | 3.5 | 12.2 | 0.00 | 0.00 | 0.00 | 31 | 1012.5 |
| 20260504204519 | 79 | 180 | 1.7 | 7.0 | 0.00 | 0.00 | 0.00 | 31 | 1012.7 |
| 20260504203021 | 80 | 211 | 1.7 | 9.6 | 0.00 | 0.00 | 0.00 | 31 | 1012.7 |
| 20260504201532 | 80 | 256 | 3.5 | 10.4 | 0.00 | 0.00 | 0.00 | 31 | 1012.7 |
| 20260504200016 | 80 | 241 | 1.7 | 7.0 | 0.00 | 0.00 | 0.00 | 33 | 1012.7 |
| 20260504194521 | 80 | 286 | 1.7 | 7.8 | 0.00 | 0.00 | 0.00 | 32 | 1013.1 |
| 20260504193024 | 80 | 254 | 1.7 | 7.0 | 0.00 | 0.00 | 0.00 | 32 | 1013.3 |
| 20260504191525 | 79 | 57 | 3.5 | 8.7 | 0.00 | 0.00 | 0.00 | 33 | 1013.4 |
| 20260504190010 | 79 | 254 | 1.7 | 13.9 | 0.00 | 0.00 | 0.00 | 33 | 1013.7 |
| 20260504184518 | 79 | 276 | 3.5 | 9.6 | 0.00 | 0.00 | 0.00 | 32 | 1013.7 |
| 20260504183024 | 78 | 178 | 1.7 | 7.0 | 0.00 | 0.00 | 0.00 | 35 | 1014.0 |
| 20260504181523 | 77 | 267 | 3.5 | 9.6 | 0.00 | 0.00 | 0.00 | 35 | 1014.1 |
| 20260504180026 | 77 | 294 | 2.6 | 8.7 | 0.00 | 0.00 | 0.00 | 35 | 1014.3 |
| 20260504174512 | 77 | 259 | 3.5 | 7.8 | 0.00 | 0.00 | 0.00 | 34 | 1014.2 |
| 20260504173031 | 77 | 312 | 4.3 | 9.6 | 0.00 | 0.00 | 0.00 | 35 | 1014.4 |
| 20260504171526 | 77 | 261 | 3.5 | 8.7 | 0.00 | 0.00 | 0.00 | 35 | 1014.7 |